Torna al catalogo

NOAA 16 DEB

AttivoSSO
NORAD 41226·DEBRIS·🇺🇸 United States

Lanciato Sep 21, 2000 da Vandenberg Space Force Base

Loading…

Prossimi Passaggi (prossime 24 ore)

TLE

AggiornatoSource: Space-Track

Epoca: Sep 14, 2026, 13:59 UTC

1 41226U 00055EF  26257.58307786  .00001525  00000-0  75113-3 0  9994
2 41226  98.6977 297.6944 0027455 359.2341   0.8789 14.18828787553520

Traccia NOAA 16 DEB in tempo reale con AllMySat

Download on the App Store